owner,sensor,date,latitude,longitude,sea_water_turbidity,qcFlag 
SCCF RECON,ioos:station:SCCF:11:1,2011-03-04T20:00:00Z,26.4679,-82.0631,7.62,1111122 
SCCF RECON,ioos:station:SCCF:11:1,2011-03-04T21:00:00Z,26.4679,-82.0631,6.22,1111122 
SCCF RECON,ioos:station:SCCF:11:1,2011-03-04T22:00:00Z,26.4679,-82.0631,7.45,1111122 
SCCF RECON,ioos:station:SCCF:11:1,2011-03-04T23:00:00Z,26.4679,-82.0631,7.02,1111122 
SCCF RECON,ioos:station:SCCF:11:1,2011-03-05T00:00:00Z,26.4679,-82.0631,7.94,1111122 
SCCF RECON,ioos:station:SCCF:11:1,2011-03-05T01:00:00Z,26.4679,-82.0631,8.38,1111122 
SCCF RECON,ioos:station:SCCF:11:1,2011-03-05T02:00:00Z,26.4679,-82.0631,9.62,1111122 
SCCF RECON,ioos:station:SCCF:11:1,2011-03-05T03:00:00Z,26.4679,-82.0631,8.73,1111122 
SCCF RECON,ioos:station:SCCF:11:1,2011-03-05T04:00:00Z,26.4679,-82.0631,7.85,1111122 
SCCF RECON,ioos:station:SCCF:11:1,2011-03-05T05:00:00Z,26.4679,-82.0631,6.84,1111122 
SCCF RECON,ioos:station:SCCF:11:1,2011-03-05T06:00:00Z,26.4679,-82.0631,6.28,1111122 
SCCF RECON,ioos:station:SCCF:11:1,2011-03-05T07:00:00Z,26.4679,-82.0631,6.58,1111122 
SCCF RECON,ioos:station:SCCF:11:1,2011-03-05T08:00:00Z,26.4679,-82.0631,6.37,1111122 
SCCF RECON,ioos:station:SCCF:11:1,2011-03-05T09:00:00Z,26.4679,-82.0631,6.54,1111122 
SCCF RECON,ioos:station:SCCF:11:1,2011-03-05T10:00:00Z,26.4679,-82.0631,7.39,1111122 
SCCF RECON,ioos:station:SCCF:11:1,2011-03-05T11:00:00Z,26.4679,-82.0631,6.12,1111122 
SCCF RECON,ioos:station:SCCF:11:1,2011-03-05T12:00:00Z,26.4679,-82.0631,7.05,1111122 
SCCF RECON,ioos:station:SCCF:11:1,2011-03-05T13:00:00Z,26.4679,-82.0631,7.1,1111122 
SCCF RECON,ioos:station:SCCF:11:1,2011-03-05T14:00:00Z,26.4679,-82.0631,7.44,1111122 
SCCF RECON,ioos:station:SCCF:11:1,2011-03-05T15:00:00Z,26.4679,-82.0631,8.47,1111122 
SCCF RECON,ioos:station:SCCF:11:1,2011-03-05T16:00:00Z,26.4679,-82.0631,8.39,1111122 
SCCF RECON,ioos:station:SCCF:11:1,2011-03-05T17:00:00Z,26.4679,-82.0631,7.84,1111122 
SCCF RECON,ioos:station:SCCF:11:1,2011-03-05T18:00:00Z,26.4679,-82.0631,6.76,1111122 
SCCF RECON,ioos:station:SCCF:11:1,2011-03-05T19:00:00Z,26.4679,-82.0631,6.66,1111122 
SCCF RECON,ioos:station:SCCF:11:1,2011-03-05T20:00:00Z,26.4679,-82.0631,4.95,1111122 
SCCF RECON,ioos:station:SCCF:11:1,2011-03-05T21:00:00Z,26.4679,-82.0631,6.37,1111122 
SCCF RECON,ioos:station:SCCF:11:1,2011-03-05T22:00:00Z,26.4679,-82.0631,6.55,1111122 
SCCF RECON,ioos:station:SCCF:11:1,2011-03-05T23:00:00Z,26.4679,-82.0631,6.55,1111122 
SCCF RECON,ioos:station:SCCF:11:1,2011-03-06T00:00:00Z,26.4679,-82.0631,7.02,1111122 
SCCF RECON,ioos:station:SCCF:11:1,2011-03-06T01:00:00Z,26.4679,-82.0631,8.26,1111122 
SCCF RECON,ioos:station:SCCF:11:1,2011-03-06T02:00:00Z,26.4679,-82.0631,6.3,1111122 
SCCF RECON,ioos:station:SCCF:11:1,2011-03-06T03:00:00Z,26.4679,-82.0631,8.19,1111122 
SCCF RECON,ioos:station:SCCF:11:1,2011-03-06T04:00:00Z,26.4679,-82.0631,7.6,1111122 
SCCF RECON,ioos:station:SCCF:11:1,2011-03-06T05:00:00Z,26.4679,-82.0631,6.99,1111122 
SCCF RECON,ioos:station:SCCF:11:1,2011-03-06T06:00:00Z,26.4679,-82.0631,6.45,1111122 
SCCF RECON,ioos:station:SCCF:11:1,2011-03-06T07:00:00Z,26.4679,-82.0631,6.18,1111122 
SCCF RECON,ioos:station:SCCF:11:1,2011-03-06T08:00:00Z,26.4679,-82.0631,6.22,1111122 
SCCF RECON,ioos:station:SCCF:11:1,2011-03-06T09:00:00Z,26.4679,-82.0631,5.77,1111122 
SCCF RECON,ioos:station:SCCF:11:1,2011-03-06T10:00:00Z,26.4679,-82.0631,5.78,1111122 
SCCF RECON,ioos:station:SCCF:11:1,2011-03-06T11:00:00Z,26.4679,-82.0631,6.19,1111122 
SCCF RECON,ioos:station:SCCF:11:1,2011-03-06T12:00:00Z,26.4679,-82.0631,6.36,1111122 
SCCF RECON,ioos:station:SCCF:11:1,2011-03-06T13:00:00Z,26.4679,-82.0631,5.99,1111122 
SCCF RECON,ioos:station:SCCF:11:1,2011-03-06T14:00:00Z,26.4679,-82.0631,5.85,1111122 
SCCF RECON,ioos:station:SCCF:11:1,2011-03-06T15:00:00Z,26.4679,-82.0631,5.74,1111122 
SCCF RECON,ioos:station:SCCF:11:1,2011-03-06T16:00:00Z,26.4679,-82.0631,9.12,1111122 
SCCF RECON,ioos:station:SCCF:11:1,2011-03-06T17:00:00Z,26.4679,-82.0631,7.17,1111122 
SCCF RECON,ioos:station:SCCF:11:1,2011-03-06T18:00:00Z,26.4679,-82.0631,7.04,1111122 
SCCF RECON,ioos:station:SCCF:11:1,2011-03-06T19:00:00Z,26.4679,-82.0631,6.09,1111122 
SCCF RECON,ioos:station:SCCF:11:1,2011-03-06T20:00:00Z,26.4679,-82.0631,7.1,1111122 
SCCF RECON,ioos:station:SCCF:11:1,2011-03-06T21:00:00Z,26.4679,-82.0631,7.43,1111122 
SCCF RECON,ioos:station:SCCF:11:1,2011-03-06T22:00:00Z,26.4679,-82.0631,7.57,1111122 
SCCF RECON,ioos:station:SCCF:11:1,2011-03-06T23:00:00Z,26.4679,-82.0631,8.12,1111122 
SCCF RECON,ioos:station:SCCF:11:1,2011-03-07T00:00:00Z,26.4679,-82.0631,9.19,1111122 
SCCF RECON,ioos:station:SCCF:11:1,2011-03-07T01:00:00Z,26.4679,-82.0631,9.02,1111122 
SCCF RECON,ioos:station:SCCF:11:1,2011-03-07T02:00:00Z,26.4679,-82.0631,8.81,1111122 
SCCF RECON,ioos:station:SCCF:11:1,2011-03-07T03:00:00Z,26.4679,-82.0631,8.22,1111122 
SCCF RECON,ioos:station:SCCF:11:1,2011-03-07T04:00:00Z,26.4679,-82.0631,6.71,1111122 
SCCF RECON,ioos:station:SCCF:11:1,2011-03-07T05:00:00Z,26.4679,-82.0631,7.34,1111122 
SCCF RECON,ioos:station:SCCF:11:1,2011-03-07T06:00:00Z,26.4679,-82.0631,6.85,1111122 
SCCF RECON,ioos:station:SCCF:11:1,2011-03-07T07:00:00Z,26.4679,-82.0631,6.37,1111122 
SCCF RECON,ioos:station:SCCF:11:1,2011-03-07T08:00:00Z,26.4679,-82.0631,6.47,1111122 
SCCF RECON,ioos:station:SCCF:11:1,2011-03-07T09:00:00Z,26.4679,-82.0631,6.72,1111122 
SCCF RECON,ioos:station:SCCF:11:1,2011-03-07T10:00:00Z,26.4679,-82.0631,6.4,1111122 
SCCF RECON,ioos:station:SCCF:11:1,2011-03-07T11:00:00Z,26.4679,-82.0631,6.14,1111122 
SCCF RECON,ioos:station:SCCF:11:1,2011-03-07T12:00:00Z,26.4679,-82.0631,6.58,1111122 
SCCF RECON,ioos:station:SCCF:11:1,2011-03-07T13:00:00Z,26.4679,-82.0631,7.52,1111122 
SCCF RECON,ioos:station:SCCF:11:1,2011-03-07T14:00:00Z,26.4679,-82.0631,6.63,1111122 
SCCF RECON,ioos:station:SCCF:11:1,2011-03-07T15:00:00Z,26.4679,-82.0631,7.19,1111122 
SCCF RECON,ioos:station:SCCF:11:1,2011-03-07T16:00:00Z,26.4679,-82.0631,7.97,1111122 
SCCF RECON,ioos:station:SCCF:11:1,2011-03-07T17:00:00Z,26.4679,-82.0631,7.12,1111122 
SCCF RECON,ioos:station:SCCF:11:1,2011-03-07T18:00:00Z,26.4679,-82.0631,6.84,1111122 
SCCF RECON,ioos:station:SCCF:11:1,2011-03-07T19:00:00Z,26.4679,-82.0631,6.51,1111122 
SCCF RECON,ioos:station:SCCF:11:1,2011-03-07T20:00:00Z,26.4679,-82.0631,5.27,1111122 
SCCF RECON,ioos:station:SCCF:11:1,2011-03-07T21:00:00Z,26.4679,-82.0631,5.38,1111122 
SCCF RECON,ioos:station:SCCF:11:1,2011-03-07T22:00:00Z,26.4679,-82.0631,6.47,1111122 
SCCF RECON,ioos:station:SCCF:11:1,2011-03-07T23:00:00Z,26.4679,-82.0631,7.11,1111122 
SCCF RECON,ioos:station:SCCF:11:1,2011-03-08T00:00:00Z,26.4679,-82.0631,7.83,1111122 
SCCF RECON,ioos:station:SCCF:11:1,2011-03-08T01:00:00Z,26.4679,-82.0631,7.78,1111122 
SCCF RECON,ioos:station:SCCF:11:1,2011-03-08T02:00:00Z,26.4679,-82.0631,7.89,1111122 
SCCF RECON,ioos:station:SCCF:11:1,2011-03-08T03:00:00Z,26.4679,-82.0631,6.14,1111122 
SCCF RECON,ioos:station:SCCF:11:1,2011-03-08T04:00:00Z,26.4679,-82.0631,6.61,1111122 
SCCF RECON,ioos:station:SCCF:11:1,2011-03-08T05:00:00Z,26.4679,-82.0631,7.61,1111122 
SCCF RECON,ioos:station:SCCF:11:1,2011-03-08T06:00:00Z,26.4679,-82.0631,8.02,1111122 
SCCF RECON,ioos:station:SCCF:11:1,2011-03-08T07:00:00Z,26.4679,-82.0631,7.61,1111122 
SCCF RECON,ioos:station:SCCF:11:1,2011-03-08T08:00:00Z,26.4679,-82.0631,6.45,1111122 
SCCF RECON,ioos:station:SCCF:11:1,2011-03-08T09:00:00Z,26.4679,-82.0631,7.21,1111122 
SCCF RECON,ioos:station:SCCF:11:1,2011-03-08T10:00:00Z,26.4679,-82.0631,6.61,1111122 
SCCF RECON,ioos:station:SCCF:11:1,2011-03-08T11:00:00Z,26.4679,-82.0631,6.37,1111122 
SCCF RECON,ioos:station:SCCF:11:1,2011-03-08T12:00:00Z,26.4679,-82.0631,6.25,1111122 
SCCF RECON,ioos:station:SCCF:11:1,2011-03-08T13:00:00Z,26.4679,-82.0631,6.6,1111122 
SCCF RECON,ioos:station:SCCF:11:1,2011-03-08T14:00:00Z,26.4679,-82.0631,6.37,1111122 
SCCF RECON,ioos:station:SCCF:11:1,2011-03-08T15:00:00Z,26.4679,-82.0631,6.34,1111122 
SCCF RECON,ioos:station:SCCF:11:1,2011-03-08T16:00:00Z,26.4679,-82.0631,7.18,1111122 
SCCF RECON,ioos:station:SCCF:11:1,2011-03-08T17:00:00Z,26.4679,-82.0631,7.69,1111122 
SCCF RECON,ioos:station:SCCF:11:1,2011-03-08T18:00:00Z,26.4679,-82.0631,7.29,1111122 
SCCF RECON,ioos:station:SCCF:11:1,2011-03-08T19:00:00Z,26.4679,-82.0631,6.27,1111122 
SCCF RECON,ioos:station:SCCF:11:1,2011-03-08T20:00:00Z,26.4679,-82.0631,5.67,1111122 
SCCF RECON,ioos:station:SCCF:11:1,2011-03-08T21:00:00Z,26.4679,-82.0631,4.62,1111122 
SCCF RECON,ioos:station:SCCF:11:1,2011-03-08T22:00:00Z,26.4679,-82.0631,5.73,1111122 
SCCF RECON,ioos:station:SCCF:11:1,2011-03-08T23:00:00Z,26.4679,-82.0631,6.41,1111122 
SCCF RECON,ioos:station:SCCF:11:1,2011-03-09T00:00:00Z,26.4679,-82.0631,7.5,1111122 
SCCF RECON,ioos:station:SCCF:11:1,2011-03-09T01:00:00Z,26.4679,-82.0631,8.78,1111122 
SCCF RECON,ioos:station:SCCF:11:1,2011-03-09T02:00:00Z,26.4679,-82.0631,8.66,1111122 
SCCF RECON,ioos:station:SCCF:11:1,2011-03-09T03:00:00Z,26.4679,-82.0631,9.93,1111122 
SCCF RECON,ioos:station:SCCF:11:1,2011-03-09T04:00:00Z,26.4679,-82.0631,7.83,1111122 
SCCF RECON,ioos:station:SCCF:11:1,2011-03-09T05:00:00Z,26.4679,-82.0631,11.03,1111122 
SCCF RECON,ioos:station:SCCF:11:1,2011-03-09T06:00:00Z,26.4679,-82.0631,9.4,1111122 
SCCF RECON,ioos:station:SCCF:11:1,2011-03-09T07:00:00Z,26.4679,-82.0631,8.06,1111122 
SCCF RECON,ioos:station:SCCF:11:1,2011-03-09T08:00:00Z,26.4679,-82.0631,7.35,1111122 
SCCF RECON,ioos:station:SCCF:11:1,2011-03-09T09:00:00Z,26.4679,-82.0631,8.21,1111122 
SCCF RECON,ioos:station:SCCF:11:1,2011-03-09T10:00:00Z,26.4679,-82.0631,7.93,1111122 
SCCF RECON,ioos:station:SCCF:11:1,2011-03-09T11:00:00Z,26.4679,-82.0631,7.53,1111122 
SCCF RECON,ioos:station:SCCF:11:1,2011-03-09T12:00:00Z,26.4679,-82.0631,6.48,1111122 
SCCF RECON,ioos:station:SCCF:11:1,2011-03-09T13:00:00Z,26.4679,-82.0631,6.75,1111122 
SCCF RECON,ioos:station:SCCF:11:1,2011-03-09T14:00:00Z,26.4679,-82.0631,7.39,1111122 
SCCF RECON,ioos:station:SCCF:11:1,2011-03-09T15:00:00Z,26.4679,-82.0631,6.91,1111122 
SCCF RECON,ioos:station:SCCF:11:1,2011-03-09T16:00:00Z,26.4679,-82.0631,7.39,1111122 
SCCF RECON,ioos:station:SCCF:11:1,2011-03-09T17:00:00Z,26.4679,-82.0631,7.91,1111122 
SCCF RECON,ioos:station:SCCF:11:1,2011-03-09T18:00:00Z,26.4679,-82.0631,8.12,1111122 
SCCF RECON,ioos:station:SCCF:11:1,2011-03-09T19:00:00Z,26.4679,-82.0631,9.52,1111122 
SCCF RECON,ioos:station:SCCF:11:1,2011-03-09T20:00:00Z,26.4679,-82.0631,8.76,1111122 
SCCF RECON,ioos:station:SCCF:11:1,2011-03-09T21:00:00Z,26.4679,-82.0631,7.66,1111122 
SCCF RECON,ioos:station:SCCF:11:1,2011-03-09T22:00:00Z,26.4679,-82.0631,6.52,1111122 
SCCF RECON,ioos:station:SCCF:11:1,2011-03-09T23:00:00Z,26.4679,-82.0631,6.49,1111122 
SCCF RECON,ioos:station:SCCF:11:1,2011-03-10T00:00:00Z,26.4679,-82.0631,6.96,1111122 
SCCF RECON,ioos:station:SCCF:11:1,2011-03-10T01:00:00Z,26.4679,-82.0631,7.86,1111122 
SCCF RECON,ioos:station:SCCF:11:1,2011-03-10T02:00:00Z,26.4679,-82.0631,7.81,1111122 
SCCF RECON,ioos:station:SCCF:11:1,2011-03-10T03:00:00Z,26.4679,-82.0631,7.98,1111122 
SCCF RECON,ioos:station:SCCF:11:1,2011-03-10T04:00:00Z,26.4679,-82.0631,6.7,1111122 
SCCF RECON,ioos:station:SCCF:11:1,2011-03-10T05:00:00Z,26.4679,-82.0631,5.81,1111122 
SCCF RECON,ioos:station:SCCF:11:1,2011-03-10T06:00:00Z,26.4679,-82.0631,7.06,1111122 
SCCF RECON,ioos:station:SCCF:11:1,2011-03-10T07:00:00Z,26.4679,-82.0631,5.73,1111122 
SCCF RECON,ioos:station:SCCF:11:1,2011-03-10T08:00:00Z,26.4679,-82.0631,6.02,1111122 
SCCF RECON,ioos:station:SCCF:11:1,2011-03-10T09:00:00Z,26.4679,-82.0631,6.6,1111122 
SCCF RECON,ioos:station:SCCF:11:1,2011-03-10T10:00:00Z,26.4679,-82.0631,5.88,1111122 
SCCF RECON,ioos:station:SCCF:11:1,2011-03-10T11:00:00Z,26.4679,-82.0631,7.18,1111122 
SCCF RECON,ioos:station:SCCF:11:1,2011-03-10T12:00:00Z,26.4679,-82.0631,6.8,1111122 
SCCF RECON,ioos:station:SCCF:11:1,2011-03-10T13:00:00Z,26.4679,-82.0631,6.07,1111122 
SCCF RECON,ioos:station:SCCF:11:1,2011-03-10T14:00:00Z,26.4679,-82.0631,5.91,1111122 
SCCF RECON,ioos:station:SCCF:11:1,2011-03-10T15:00:00Z,26.4679,-82.0631,8.49,1111122 
SCCF RECON,ioos:station:SCCF:11:1,2011-03-10T16:00:00Z,26.4679,-82.0631,6.52,1111122 
SCCF RECON,ioos:station:SCCF:11:1,2011-03-10T17:00:00Z,26.4679,-82.0631,6.54,1111122 
SCCF RECON,ioos:station:SCCF:11:1,2011-03-10T18:00:00Z,26.4679,-82.0631,8.58,1111122 
SCCF RECON,ioos:station:SCCF:11:1,2011-03-10T19:00:00Z,26.4679,-82.0631,8.01,1111122 
SCCF RECON,ioos:station:SCCF:11:1,2011-03-10T20:00:00Z,26.4679,-82.0631,7.11,1111122 
SCCF RECON,ioos:station:SCCF:11:1,2011-03-10T21:00:00Z,26.4679,-82.0631,7.2,1111122 
SCCF RECON,ioos:station:SCCF:11:1,2011-03-10T22:00:00Z,26.4679,-82.0631,6.02,1111122 
SCCF RECON,ioos:station:SCCF:11:1,2011-03-10T23:00:00Z,26.4679,-82.0631,7.38,1111122 
SCCF RECON,ioos:station:SCCF:11:1,2011-03-11T00:00:00Z,26.4679,-82.0631,8.12,1111122 
SCCF RECON,ioos:station:SCCF:11:1,2011-03-11T01:00:00Z,26.4679,-82.0631,11.83,1111122 
SCCF RECON,ioos:station:SCCF:11:1,2011-03-11T02:00:00Z,26.4679,-82.0631,9.87,1111122 
SCCF RECON,ioos:station:SCCF:11:1,2011-03-11T03:00:00Z,26.4679,-82.0631,9.8,1111122 
SCCF RECON,ioos:station:SCCF:11:1,2011-03-11T04:00:00Z,26.4679,-82.0631,10.98,1111122 
SCCF RECON,ioos:station:SCCF:11:1,2011-03-11T05:00:00Z,26.4679,-82.0631,9.24,1111122 
SCCF RECON,ioos:station:SCCF:11:1,2011-03-11T06:00:00Z,26.4679,-82.0631,9.42,1111122 
SCCF RECON,ioos:station:SCCF:11:1,2011-03-11T07:00:00Z,26.4679,-82.0631,8.14,1111122 
SCCF RECON,ioos:station:SCCF:11:1,2011-03-11T08:00:00Z,26.4679,-82.0631,8.66,1111122 
SCCF RECON,ioos:station:SCCF:11:1,2011-03-11T09:00:00Z,26.4679,-82.0631,8.55,1111122 
SCCF RECON,ioos:station:SCCF:11:1,2011-03-11T10:00:00Z,26.4679,-82.0631,7.26,1111122 
SCCF RECON,ioos:station:SCCF:11:1,2011-03-11T11:00:00Z,26.4679,-82.0631,7.03,1111122 
SCCF RECON,ioos:station:SCCF:11:1,2011-03-11T12:00:00Z,26.4679,-82.0631,7.87,1111122 
SCCF RECON,ioos:station:SCCF:11:1,2011-03-11T13:00:00Z,26.4679,-82.0631,7.43,1111122 
SCCF RECON,ioos:station:SCCF:11:1,2011-03-11T14:00:00Z,26.4679,-82.0631,7.31,1111122 
SCCF RECON,ioos:station:SCCF:11:1,2011-03-11T15:00:00Z,26.4679,-82.0631,8.1,1111122 
SCCF RECON,ioos:station:SCCF:11:1,2011-03-11T16:00:00Z,26.4679,-82.0631,7.11,1111122 
SCCF RECON,ioos:station:SCCF:11:1,2011-03-11T17:00:00Z,26.4679,-82.0631,5.65,1111122 
SCCF RECON,ioos:station:SCCF:11:1,2011-03-11T18:00:00Z,26.4679,-82.0631,7.24,1111122 
SCCF RECON,ioos:station:SCCF:11:1,2011-03-11T19:00:00Z,26.4679,-82.0631,10.08,1111122 
SCCF RECON,ioos:station:SCCF:11:1,2011-03-11T20:00:00Z,26.4679,-82.0631,9.84,1111122 
SCCF RECON,ioos:station:SCCF:11:1,2011-03-11T21:00:00Z,26.4679,-82.0631,11.26,1111122 
SCCF RECON,ioos:station:SCCF:11:1,2011-03-11T22:00:00Z,26.4679,-82.0631,9.51,1111122 
SCCF RECON,ioos:station:SCCF:11:1,2011-03-11T23:00:00Z,26.4679,-82.0631,8.62,1111122 
SCCF RECON,ioos:station:SCCF:11:1,2011-03-12T00:00:00Z,26.4679,-82.0631,8.92,1111122 
SCCF RECON,ioos:station:SCCF:11:1,2011-03-12T01:00:00Z,26.4679,-82.0631,8.7,1111122 
SCCF RECON,ioos:station:SCCF:11:1,2011-03-12T02:00:00Z,26.4679,-82.0631,9.05,1111122 
SCCF RECON,ioos:station:SCCF:11:1,2011-03-12T03:00:00Z,26.4679,-82.0631,9.79,1111122 
SCCF RECON,ioos:station:SCCF:11:1,2011-03-12T04:00:00Z,26.4679,-82.0631,8.78,1111122 
SCCF RECON,ioos:station:SCCF:11:1,2011-03-12T05:00:00Z,26.4679,-82.0631,7.88,1111122 
SCCF RECON,ioos:station:SCCF:11:1,2011-03-12T06:00:00Z,26.4679,-82.0631,7.77,1111122 
SCCF RECON,ioos:station:SCCF:11:1,2011-03-12T07:00:00Z,26.4679,-82.0631,7.22,1111122 
SCCF RECON,ioos:station:SCCF:11:1,2011-03-12T08:00:00Z,26.4679,-82.0631,6.65,1111122 
SCCF RECON,ioos:station:SCCF:11:1,2011-03-12T09:00:00Z,26.4679,-82.0631,7.72,1111122 
SCCF RECON,ioos:station:SCCF:11:1,2011-03-12T10:00:00Z,26.4679,-82.0631,6.49,1111122 
SCCF RECON,ioos:station:SCCF:11:1,2011-03-12T11:00:00Z,26.4679,-82.0631,6.23,1111122 
SCCF RECON,ioos:station:SCCF:11:1,2011-03-12T12:00:00Z,26.4679,-82.0631,6.24,1111122 
SCCF RECON,ioos:station:SCCF:11:1,2011-03-12T13:00:00Z,26.4679,-82.0631,5.73,1111122 
SCCF RECON,ioos:station:SCCF:11:1,2011-03-12T14:00:00Z,26.4679,-82.0631,6.04,1111122 
SCCF RECON,ioos:station:SCCF:11:1,2011-03-12T15:00:00Z,26.4679,-82.0631,5.45,1111122 
SCCF RECON,ioos:station:SCCF:11:1,2011-03-12T16:00:00Z,26.4679,-82.0631,5.07,1111122 
SCCF RECON,ioos:station:SCCF:11:1,2011-03-12T17:00:00Z,26.4679,-82.0631,5.71,1111122 
SCCF RECON,ioos:station:SCCF:11:1,2011-03-12T18:00:00Z,26.4679,-82.0631,4.62,1111122 
SCCF RECON,ioos:station:SCCF:11:1,2011-03-12T19:00:00Z,26.4679,-82.0631,4.41,1111122 
SCCF RECON,ioos:station:SCCF:11:1,2011-03-12T20:00:00Z,26.4679,-82.0631,4.1,1111122 
SCCF RECON,ioos:station:SCCF:11:1,2011-03-12T21:00:00Z,26.4679,-82.0631,4.05,1111122 
SCCF RECON,ioos:station:SCCF:11:1,2011-03-12T22:00:00Z,26.4679,-82.0631,3.79,1111122 
SCCF RECON,ioos:station:SCCF:11:1,2011-03-12T23:00:00Z,26.4679,-82.0631,4.66,1111122 
SCCF RECON,ioos:station:SCCF:11:1,2011-03-13T00:00:00Z,26.4679,-82.0631,6.03,1111122 
SCCF RECON,ioos:station:SCCF:11:1,2011-03-13T01:00:00Z,26.4679,-82.0631,5.95,1111122 
SCCF RECON,ioos:station:SCCF:11:1,2011-03-13T02:00:00Z,26.4679,-82.0631,6.13,1111122 
SCCF RECON,ioos:station:SCCF:11:1,2011-03-13T03:00:00Z,26.4679,-82.0631,6.91,1111122 
SCCF RECON,ioos:station:SCCF:11:1,2011-03-13T04:00:00Z,26.4679,-82.0631,7.03,1111122 
SCCF RECON,ioos:station:SCCF:11:1,2011-03-13T05:00:00Z,26.4679,-82.0631,7.54,1111122 
SCCF RECON,ioos:station:SCCF:11:1,2011-03-13T06:00:00Z,26.4679,-82.0631,8.21,1111122 
SCCF RECON,ioos:station:SCCF:11:1,2011-03-13T07:00:00Z,26.4679,-82.0631,8.04,1111122 
SCCF RECON,ioos:station:SCCF:11:1,2011-03-13T08:00:00Z,26.4679,-82.0631,6.51,1111122 
SCCF RECON,ioos:station:SCCF:11:1,2011-03-13T09:00:00Z,26.4679,-82.0631,6.55,1111122 
SCCF RECON,ioos:station:SCCF:11:1,2011-03-13T10:00:00Z,26.4679,-82.0631,5.3,1111122 
SCCF RECON,ioos:station:SCCF:11:1,2011-03-13T11:00:00Z,26.4679,-82.0631,5.44,1111122 
SCCF RECON,ioos:station:SCCF:11:1,2011-03-13T12:00:00Z,26.4679,-82.0631,6.11,1111122 
SCCF RECON,ioos:station:SCCF:11:1,2011-03-13T13:00:00Z,26.4679,-82.0631,6.08,1111122 
SCCF RECON,ioos:station:SCCF:11:1,2011-03-13T14:00:00Z,26.4679,-82.0631,5.75,1111122 
SCCF RECON,ioos:station:SCCF:11:1,2011-03-13T15:00:00Z,26.4679,-82.0631,5.78,1111122 
SCCF RECON,ioos:station:SCCF:11:1,2011-03-13T16:00:00Z,26.4679,-82.0631,5.46,1111122 
SCCF RECON,ioos:station:SCCF:11:1,2011-03-13T17:00:00Z,26.4679,-82.0631,5.38,1111122 
SCCF RECON,ioos:station:SCCF:11:1,2011-03-13T18:00:00Z,26.4679,-82.0631,5.73,1111122 
SCCF RECON,ioos:station:SCCF:11:1,2011-03-13T19:00:00Z,26.4679,-82.0631,4.92,1111122 
SCCF RECON,ioos:station:SCCF:11:1,2011-03-13T20:00:00Z,26.4679,-82.0631,4.38,1111122 
SCCF RECON,ioos:station:SCCF:11:1,2011-03-13T21:00:00Z,26.4679,-82.0631,4.43,1111122 
SCCF RECON,ioos:station:SCCF:11:1,2011-03-13T22:00:00Z,26.4679,-82.0631,5.72,1111122 
SCCF RECON,ioos:station:SCCF:11:1,2011-03-13T23:00:00Z,26.4679,-82.0631,6.2,1111122 
SCCF RECON,ioos:station:SCCF:11:1,2011-03-14T00:00:00Z,26.4679,-82.0631,7.11,1111122 
SCCF RECON,ioos:station:SCCF:11:1,2011-03-14T01:00:00Z,26.4679,-82.0631,5.8,1111122 
SCCF RECON,ioos:station:SCCF:11:1,2011-03-14T02:00:00Z,26.4679,-82.0631,5.34,1111122 
SCCF RECON,ioos:station:SCCF:11:1,2011-03-14T03:00:00Z,26.4679,-82.0631,6.26,1111122 
SCCF RECON,ioos:station:SCCF:11:1,2011-03-14T04:00:00Z,26.4679,-82.0631,6.83,1111122 
SCCF RECON,ioos:station:SCCF:11:1,2011-03-14T05:00:00Z,26.4679,-82.0631,7.19,1111122 
SCCF RECON,ioos:station:SCCF:11:1,2011-03-14T06:00:00Z,26.4679,-82.0631,8.44,1111122 
SCCF RECON,ioos:station:SCCF:11:1,2011-03-14T07:00:00Z,26.4679,-82.0631,9.33,1111122 
SCCF RECON,ioos:station:SCCF:11:1,2011-03-14T08:00:00Z,26.4679,-82.0631,9.8,1111122 
SCCF RECON,ioos:station:SCCF:11:1,2011-03-14T09:00:00Z,26.4679,-82.0631,7.08,1111122 
SCCF RECON,ioos:station:SCCF:11:1,2011-03-14T10:00:00Z,26.4679,-82.0631,7.27,1111122 
SCCF RECON,ioos:station:SCCF:11:1,2011-03-14T11:00:00Z,26.4679,-82.0631,7.38,1111122 
SCCF RECON,ioos:station:SCCF:11:1,2011-03-14T12:00:00Z,26.4679,-82.0631,6.19,1111122 
SCCF RECON,ioos:station:SCCF:11:1,2011-03-14T13:00:00Z,26.4679,-82.0631,5.89,1111122 
SCCF RECON,ioos:station:SCCF:11:1,2011-03-14T14:00:00Z,26.4679,-82.0631,5.97,1111122 
SCCF RECON,ioos:station:SCCF:11:1,2011-03-14T15:00:00Z,26.4679,-82.0631,5.6,1111122 
SCCF RECON,ioos:station:SCCF:11:1,2011-03-14T16:00:00Z,26.4679,-82.0631,6.05,1111122 
SCCF RECON,ioos:station:SCCF:11:1,2011-03-14T17:00:00Z,26.4679,-82.0631,6.19,1111122 
SCCF RECON,ioos:station:SCCF:11:1,2011-03-14T18:00:00Z,26.4679,-82.0631,6.44,1111122 
SCCF RECON,ioos:station:SCCF:11:1,2011-03-14T19:00:00Z,26.4679,-82.0631,6.85,1111122 
SCCF RECON,ioos:station:SCCF:11:1,2011-03-14T20:00:00Z,26.4679,-82.0631,5.01,1111122 
SCCF RECON,ioos:station:SCCF:11:1,2011-03-14T21:00:00Z,26.4679,-82.0631,4.71,1111122 
SCCF RECON,ioos:station:SCCF:11:1,2011-03-14T22:00:00Z,26.4679,-82.0631,4.66,1111122 
SCCF RECON,ioos:station:SCCF:11:1,2011-03-14T23:00:00Z,26.4679,-82.0631,7.7,1111122 
SCCF RECON,ioos:station:SCCF:11:1,2011-03-15T00:00:00Z,26.4679,-82.0631,4.53,1111122 
SCCF RECON,ioos:station:SCCF:11:1,2011-03-15T01:00:00Z,26.4679,-82.0631,4.98,1111122 
SCCF RECON,ioos:station:SCCF:11:1,2011-03-15T02:00:00Z,26.4679,-82.0631,5.87,1111122 
SCCF RECON,ioos:station:SCCF:11:1,2011-03-15T03:00:00Z,26.4679,-82.0631,5.03,1111122 
SCCF RECON,ioos:station:SCCF:11:1,2011-03-15T04:00:00Z,26.4679,-82.0631,6.08,1111122 
SCCF RECON,ioos:station:SCCF:11:1,2011-03-15T05:00:00Z,26.4679,-82.0631,6.72,1111122 
SCCF RECON,ioos:station:SCCF:11:1,2011-03-15T06:00:00Z,26.4679,-82.0631,7.57,1111122 
SCCF RECON,ioos:station:SCCF:11:1,2011-03-15T07:00:00Z,26.4679,-82.0631,8.36,1111122 
SCCF RECON,ioos:station:SCCF:11:1,2011-03-15T08:00:00Z,26.4679,-82.0631,9.11,1111122 
SCCF RECON,ioos:station:SCCF:11:1,2011-03-15T09:00:00Z,26.4679,-82.0631,9.56,1111122 
SCCF RECON,ioos:station:SCCF:11:1,2011-03-15T10:00:00Z,26.4679,-82.0631,7.36,1111122 
SCCF RECON,ioos:station:SCCF:11:1,2011-03-15T11:00:00Z,26.4679,-82.0631,9.17,1111122 
SCCF RECON,ioos:station:SCCF:11:1,2011-03-15T12:00:00Z,26.4679,-82.0631,6.92,1111122 
SCCF RECON,ioos:station:SCCF:11:1,2011-03-15T13:00:00Z,26.4679,-82.0631,6.01,1111122 
SCCF RECON,ioos:station:SCCF:11:1,2011-03-15T14:00:00Z,26.4679,-82.0631,5.76,1111122 
SCCF RECON,ioos:station:SCCF:11:1,2011-03-15T15:00:00Z,26.4679,-82.0631,5.38,1111122 
SCCF RECON,ioos:station:SCCF:11:1,2011-03-15T16:00:00Z,26.4679,-82.0631,5.18,1111122 
SCCF RECON,ioos:station:SCCF:11:1,2011-03-15T17:00:00Z,26.4679,-82.0631,6.04,1111122 
SCCF RECON,ioos:station:SCCF:11:1,2011-03-15T18:00:00Z,26.4679,-82.0631,5.39,1111122 
SCCF RECON,ioos:station:SCCF:11:1,2011-03-15T19:00:00Z,26.4679,-82.0631,4.73,1111122 
SCCF RECON,ioos:station:SCCF:11:1,2011-03-15T20:00:00Z,26.4679,-82.0631,4.16,1111122 
SCCF RECON,ioos:station:SCCF:11:1,2011-03-15T21:00:00Z,26.4679,-82.0631,5.2,1111122 
SCCF RECON,ioos:station:SCCF:11:1,2011-03-15T22:00:00Z,26.4679,-82.0631,5.01,1111122 
SCCF RECON,ioos:station:SCCF:11:1,2011-03-15T23:00:00Z,26.4679,-82.0631,5.34,1111122 
SCCF RECON,ioos:station:SCCF:11:1,2011-03-16T00:00:00Z,26.4679,-82.0631,5.35,1111122 
SCCF RECON,ioos:station:SCCF:11:1,2011-03-16T01:00:00Z,26.4679,-82.0631,4.55,1111122 
SCCF RECON,ioos:station:SCCF:11:1,2011-03-16T02:00:00Z,26.4679,-82.0631,6.31,1111122 
SCCF RECON,ioos:station:SCCF:11:1,2011-03-16T03:00:00Z,26.4679,-82.0631,5.76,1111122 
SCCF RECON,ioos:station:SCCF:11:1,2011-03-16T04:00:00Z,26.4679,-82.0631,5.45,1111122 
SCCF RECON,ioos:station:SCCF:11:1,2011-03-16T05:00:00Z,26.4679,-82.0631,5.15,1111122 
SCCF RECON,ioos:station:SCCF:11:1,2011-03-16T06:00:00Z,26.4679,-82.0631,6.08,1111122 
SCCF RECON,ioos:station:SCCF:11:1,2011-03-16T07:00:00Z,26.4679,-82.0631,6.79,1111122 
SCCF RECON,ioos:station:SCCF:11:1,2011-03-16T08:00:00Z,26.4679,-82.0631,7.11,1111122 
SCCF RECON,ioos:station:SCCF:11:1,2011-03-16T09:00:00Z,26.4679,-82.0631,7.46,1111122 